Weather in Andahuaylas

Peru     13°39′30″S   73°23′28″W
temp.,
°C
wind,
m/s
gust,
m/s
humid.,
%
clouds,
%
prec.,
mm/h
press.,
hPa
HPBL,
m
23 april, fri
fri2301:00+4sse118864 0.1 102010
04:00+4sse22855 0.0 101910
07:00+6sse11775 0.0 102051
10:00+11nw32636 0.1 10181045
13:00+13nnw335633 0.9 10131569
16:00+12nne32647 0.6 1012661
19:00+6se22867 1.8 101716
22:00+6se228221 0.9 101910
24 april, sat
sat2401:00+4ese11866 0.9 101910
04:00+4sse11896 0.0 101910
07:00+6sse11853 0.0 102050
10:00+10nw32683 0.3 1019888
13:00+14nw33517 0.4 10131761
16:00+13n224914 0.1 10101363
19:00+7ene228534 0.2 101516
22:00+6ne118831 0.6 101822
25 april, sun
sun2501:00+6ne119090 1.4 101817
04:00+4ne009332 0.3 101812
07:00+6ene118925 0.4 102076
10:00+10nnw3270100 0.7 1018836
13:00+12nnw326397 1.9 10141092
16:00+12nne2263100 0.7 10121122
19:00+7nne117977 1.2 101610
22:00+8ne228291 0.4 101719
26 april, mon
mon2601:00+7n118994 1.1 101716
04:00+6nne119046 0.6 101718
07:00+7wnw008533 1.1 101956
10:00+11nw327017 0.5 1017871
13:00+13nw33577 1.4 10121448
16:00+13n32588 0.2 1009950
19:00+7e22854 1.8 101512
22:00+5nne119324 0.1 102064
27 april, tue
tue2701:00+4e009549 0.1 102075
04:00+4sse118966 0.0 102037
07:00+5s22805 0.0 102165
10:00+10wnw32568 0.0 10181013
13:00+14wnw434599 0.0 10131586
16:00+13nnw324897 0.1 10101020
19:00+6e339297 0.3 101725
22:00+4nne1194100 0.0 102022